Location: Ottawa
(45.4167°N, 75.7000°W)
Time: 05:32:17
(UTC-05:00)

Tiangong 2 - Pass Details

Date: 11 October 2017
Orbit: 386 x 390 km, 42.8° (Epoch: 11 December)

Event Time Altitude Azimuth Distance (km) Brightness Sun altitude
Exits shadow 06:14:34 15° 237° (WSW) 1,177 3.0 -11.2°
Maximum altitude 06:17:00 43° 169° (S) 563 2.0 -10.8°
Drops below altitude 10° 06:20:04 10° 96° (E) 1,425 5.5 -10.3°
Sets 06:22:12 0° 90° (E) 2,283 7.4 -9.9°
